Regional Weather Roundup
Issued by NWS

Home | Current Version | Previous Version | Graphics & Text | Print | Product List | Glossary On
Versions: 1 2 3 4 5 6 7 8 9 10 11 12 13 14 15 16 17 18 19 20 21 22 23 24 25 26 27 28 29 30 31 32 33 34 35 36 37 38 39 40 41 42 43 44 45 46 47 48 49 50
681
ASUS44 KJAN 301803
RWRMS

MISSISSIPPI HOURLY WEATHER ROUNDUP
NATIONAL WEATHER SERVICE JACKSON MS
100 PM CDT THU OCT 30 2014

NOTE: "FAIR: INDICATES FEW OR NO CLOUDS BELOW 12,000 FEET WITH NO
SIGNIFICANT WEATHER AND/OR OBSTRUCTIONS TO VISIBILITY.

MSZ001>002-007>008-010>013-018>021-025>028-034>036-301900-
NORTHWEST MISSISSIPPI

CITY           SKY/WX    TMP DP  RH WIND       PRES   REMARKS
CLARKSDALE     FAIR      68  45  42 CALM      30.13F
CLEVELAND      FAIR      69  48  47 CALM      30.12F
GREENWOOD      SUNNY     70  43  37 VRB6      30.13F
6HR MIN TEMP:  41; 6HR MAX TEMP:  70;

GREENVILLE     SUNNY     69  45  41 W5        30.13F
6HR MIN TEMP:  44; 6HR MAX TEMP:  70;

GRENADA        FAIR      68  34  28 CALM      30.13F
OLIVE BRANCH   SUNNY     63  37  39 CALM      30.13F
OXFORD         FAIR      64  36  34 CALM      30.14F
TUNICA         CLEAR     66  36  32 W3        30.13F
$$

MSZ003>006-009-014>017-022>024-029>033-037>039-301900-
NORTHEAST MISSISSIPPI

CITY           SKY/WX    TMP DP  RH WIND       PRES   REMARKS
COLUMBUS AFB   SUNNY     65  35  32 CALM      30.11F
6HR MIN TEMP:  40; 6HR MAX TEMP:  66; 6HR PCP: TRACE;

CORINTH        FAIR      63  36  36 CALM      30.11F
GOLDN TRIANGLE SUNNY     66  37  34 NE7       30.11F
STARKVILLE     FAIR      66  36  32 N3        30.11F
TUPELO         SUNNY     65  36  34 N9        30.11F
6HR MIN TEMP:  42; 6HR MAX TEMP:  65;

$$

MSZ040-058-301900-
CENTRAL MISSISSIPPI

CITY           SKY/WX    TMP DP  RH WIND       PRES   REMARKS
JACKSON INTL   SUNNY     71  38  29 N8        30.12F
6HR MIN TEMP:  41; 6HR MAX TEMP:  71;

JACKSON HAWKNS SUNNY     70  39  32 MISG      30.12F
6HR MIN TEMP:  44; 6HR MAX TEMP:  70;

MERIDIAN KEY   SUNNY     68  36  30 NE10      30.10F
6HR MIN TEMP:  39; 6HR MAX TEMP:  70;

MERIDIAN NAS   SUNNY     68  35  29 N7        30.10F
6HR MIN TEMP:  40; 6HR MAX TEMP:  69;

RAYMOND        FAIR      70  64  83 N7        30.13F
VICKSBURG      SUNNY     71  43  36 VRB5      30.13F
6HR MIN TEMP:  37; 6HR MAX TEMP:  71;

$$

MSZ059>079-301900-
SOUTH MISSISSIPPI

CITY           SKY/WX    TMP DP  RH WIND       PRES   REMARKS
BROOKHAVEN     FAIR      70  39  32 NE7       30.13F
COLUMBIA         N/A     70  39  32 MISG      30.09F
HATTIESBURG    SUNNY     71  37  28 N10       30.10F
6HR MIN TEMP:  45; 6HR MAX TEMP:  71;

MCCOMB         SUNNY     70  36  28 VRB6      30.11F
6HR MIN TEMP:  50; 6HR MAX TEMP:  70;

NATCHEZ        SUNNY     70  43  37 NE7       30.13F
6HR MIN TEMP:  43; 6HR MAX TEMP:  70;

PINE BELT      SUNNY     70  36  28 NE12      30.11F
6HR MIN TEMP:  46; 6HR MAX TEMP:  70;

$$

MSZ080>082-301900-
COASTAL MISSISSIPPI

CITY           SKY/WX    TMP DP  RH WIND       PRES   REMARKS
BAY ST LOUIS   SUNNY     72  34  25 N10       30.08F
BILOXI         SUNNY     72  45  38 N10       30.06F
6HR MIN TEMP:  56; 6HR MAX TEMP:  72;

PASCAGOULA     SUNNY     72  41  32 NE10G23   30.06F
6HR MIN TEMP:  53; 6HR MAX TEMP:  72;

GULFPORT       SUNNY     72  41  32 NE14      30.07F
6HR MIN TEMP:  55; 6HR MAX TEMP:  73;

$$



USA.gov is the U.S. government's official web portal to all federal, state and local government web resources and services.